Regional Weather Roundup
Issued by NWS Upton, NY

Current Version | Previous Version | Text Only | Print | Product List | Glossary Off
Versions: 1 2 3 4 5 6 7 8 9 10 11 12 13 14 15 16 17 18 19 20 21 22 23 24 25 26 27
000 ASUS41 KOKX 162008 RWROKX REGIONAL WEATHER ROUNDUP NATIONAL WEATHER SERVICE NEW YORK NY 300 PM EST MON JAN 16 2017 NOTE: "FAIR" INDICATES FEW OR NO CLOUDS BELOW 12,000 FEET WITH NO SIGNIFICANT WEATHER AND/OR OBSTRUCTIONS TO VISIBILITY. NYZ071-072-176-178-NJZ106-104-162100- NEW YORK CITY METRO AREA CITY SKY/WX TMP DP RH WIND PRES REMARKS Central Park SUNNY 43 21 41 VRB5 30.37F Wall St Helipt CLEAR 46 25 43 SW7 30.37F Bronx Bot Gard NOT AVBL LaGuardia APRT PTSUNNY 44 21 40 SW6 30.35F Kennedy INTL PTSUNNY 41 23 48 S10 30.37F Breezy Point N/A 37 N/A N/A S8 N/A WCI 31 Newark/Liberty PTSUNNY 43 22 43 S8 30.36F Teterboro SUNNY 44 19 36 SW7 30.34F $$ NYZ177-179-078>081-162100- LONG ISLAND NEW YORK CITY SKY/WX TMP DP RH WIND PRES REMARKS Jones Beach N/A 37 N/A N/A SW6 N/A WCI 33 Matinecock PT N/A 39 N/A N/A SW7 N/A WCI 34 Farmingdale SUNNY 40 25 55 S7 30.36F MacArthur/ISP PTSUNNY 40 24 53 SW8 30.35F WCI 34 Shirley SUNNY 39 23 52 S8 30.37F WCI 33 Westhampton SUNNY 39 25 57 SW8 30.38F WCI 33 Southampton NOT AVBL Bridgehampton NOT AVBL East Hampton N/A 38 23 54 SW10 30.35F WCI 32 Montauk N/A 39 24 55 W6 30.37S WCI 35 $$ NYZ052-065-067-162100- HUDSON VALLEY CITY SKY/WX TMP DP RH WIND PRES REMARKS White Plains MOSUNNY 41 18 39 W3 30.32F Newburgh MOSUNNY 39 23 52 W9 30.32F WCI 33 Montgomery CLOUDY 40 23 50 S8 30.30F WCI 34 Poughkeepsie CLOUDY 39 19 44 S6 30.32F WCI 35 Albany MOSUNNY 38 18 44 S9 30.29F WCI 31 $$ NJZ001-105-106-008-010-013-015-019>022-104-162100- NEW JERSEY CITY SKY/WX TMP DP RH WIND PRES REMARKS Newark/Liberty PTSUNNY 43 22 43 S8 30.36F Teterboro SUNNY 44 19 36 SW7 30.34F Caldwell SUNNY 43 21 41 S7 30.35F Somerville SUNNY 43 22 43 SW7 30.35F Linden N/A 42 20 41 W8 30.37S Sussex CLOUDY 41 22 46 VRB3 30.32F Andover N/A 39 22 50 VRB6 30.33S WCI 35 Trenton SUNNY 43 24 47 W6 30.37F Millville CLOUDY 40 25 55 W5 30.40S Atlantic City MOSUNNY 44 21 40 W3 30.39S Wrightstown MOSUNNY 43 22 43 W5 30.35F Toms River SUNNY 44 23 43 NW6 30.38F Belmar SUNNY 44 21 40 W5 30.38S $$ PAZ047>061-062-071-162100- EASTERN PENNSYLVANIA CITY SKY/WX TMP DP RH WIND PRES REMARKS Philadelphia PTSUNNY 42 22 44 SW8 30.40S Allentown CLOUDY 41 24 51 W9 30.36F Scranton CLOUDY 39 24 55 SW8 30.31F WCI 33 $$ CTZ002-004>006-009-010-012-RIZ004-006-007-MAZ004-011-015-162100- SOUTHERN NEW ENGLAND IN CT CITY SKY/WX TMP DP RH WIND PRES REMARKS Bradley INTL PTSUNNY 42 18 37 S7 30.30F Hartford SUNNY 41 19 41 SW6 30.32F Danbury SUNNY 39 18 42 SW7 30.33F WCI 34 Wtrbury/Oxford MOSUNNY 39 18 41 W7 30.33S WCI 34 Bridgeport SUNNY 40 25 55 SW12 30.35F WCI 33 Meriden SUNNY 41 20 43 S12 30.33F New Haven SUNNY 37 25 61 SW9 30.34F WCI 30 Chester N/A 37 19 48 SW8 30.33S WCI 31 Groton SUNNY 37 24 59 SW14 30.34F WCI 28 Wilimantic SUNNY 42 17 36 VRB6 30.32F IN RI CITY SKY/WX TMP DP RH WIND PRES REMARKS Providence PTSUNNY 42 13 30 SW12 30.32F Block Island NOT AVBL Westerly SUNNY 38 21 50 SW9 30.35F WCI 31 IN MA CITY SKY/WX TMP DP RH WIND PRES REMARKS Boston MOSUNNY 40 16 37 SW14G22 30.28F WCI 32 Worcester SUNNY 36 14 40 W12 30.25F WCI 28 Westfield SUNNY 43 16 33 S8 30.28F Provincetown SUNNY 39 25 57 SW20G25 30.30F WCI 29 Nantucket SUNNY 41 26 55 W16 30.34S $$ ANZ330-335-338-340-345-350-353-355-162100- COASTAL MARINE OBSERVATIONS STATION/POSITION TIME SKY/WX TEMP WIND PRES VSBY WAVE AIR SEA DIR/SP/G HT/PER (UTC) (F) (DEG/KT/KT) (MB) (MI) (FT/S) NY HARB ENTRANCE 1850 39 45 180/ 2/ 4 1029.1 1/11 20 S FIRE ISLAND 1950 38 45 250/ 4/ 6 1028.9 2/ 9 GREAT SOUTH BAY NOT AVBL 23 SSW MONTAUK P 1850 39 48 260/ 12/ 16 1029.1 2/ 9 15 E BARNEGAT LI 1930 46 N/A 2/11 HUDSON CANYON 1850 46 53 1029.2 2/10 KINGS POINT 1936 42 38 1027.7 EXECUTION ROCKS 1945 43 210/ 6/ 8 N/A CENTRAL LI SOUND 1930 38 240/ 14/ 17 N/A 1/ 2 EASTERN LI SOUND NOT AVBL ROBBINS REEF 1948 42 240/ 8/ 10 1028.3 $$ >>>>>>>>>>>>>>>>>>>>>>>>>>>> KEY <<<<<<<<<<<<<<<<<<<<<<<<<<< > < > SKY/WX - Sky Condition/Present Weather < > TMP - Temperature in Fahrenheit < > DP - Dew Point in Fahrenheit < > RH - Relative Humidity in Percent < > WIND - Direction (from) and Speed in MPH < > PRES - Mean Sea Level Pressure (inches of Hg) < > WCI - Wind Chill Index < > VSB - VISIBILITY IN MILES < > HX - HEAT INDEX < > TC - TEMPERATURE IN CELSIUS < > VRB - VARIABLE WIND DIRECTION < > < >>>>>>>>>>>>>>>>>>>>>>>>>>>> KEY <<<<<<<<<<<<<<<<<<<<<<<<<<<

USA.gov is the U.S. government's official web portal to all federal, state and local government web resources and services.